Flag for Germany Weather past 2 weeks in Kamp-Lintfort, North Rhine-Westphalia, Germany

Now
59 °F

Passing clouds.


Feels Like: 59 °F
Forecast: 55 / 69 °F
Wind: 1 mph from East

Location: Duesseldorf

Current Time: Oct 2, 2014 at 12:00:45 AM

Latest Report: Oct 1, 2014 at 10:00 PM


Visibility: 22 mi

Pressure: 30.35 "Hg

Humidity: 89%

Dew point: 56 °F

Location of Kamp-LintfortLocation

Historic Weather in Kamp-Lintfort — Graph

°F

Kamp-Lintfort temperature yesterday

Maximum temperature yesterday: 69 °F (at 4:00 PM)
Minimum temperature yesterday: 52 °F (at 2:00 AM)
Average temperature yesterday: 60 °F

Past Weeks' High & Low Weather Summary

 TemperatureHumidityPressure
High76 °F (Sep 17, 5:00 PM)99% (Sep 25, 1:00 AM)30.40 "Hg (Sep 25, 1:00 AM)
Low43 °F (Sep 23, 5:00 AM)48% (Sep 17, 6:00 PM)29.83 "Hg (Sep 18, 8:00 PM)
Average60 °F81%30.10 "Hg
* Reported Sep 16 10:00 PM — Oct 1 10:00 PM, Kamp-Lintfort, Weather by CustomWeather, © 2014

Note: Actual official high and low records may vary slightly from our data, if they occured in-between our weather recording intervals... More about our weather records

Advertising

Kamp-Lintfort weather history for previous 24 hours

 ConditionsComfort  
Time TempWeatherWind HumidityBarometerVisibility
10:00 PM
Oct 1
59 °FPassing clouds.1 mph89%30.35 "Hg22 mi
9:00 PM57 °FPassing clouds.1 mph92%30.34 "Hg22 mi
8:00 PM60 °FPassing clouds.1 mph87%30.33 "Hg19 mi
7:00 PM65 °FPassing clouds.1 mph72%30.32 "Hg22 mi
6:00 PM68 °FPassing clouds.1 mph63%30.31 "Hg22 mi
4:00 PM69 °FPartly sunny.2 mph63%30.31 "Hg17 mi
3:00 PM68 °FScattered clouds.3 mph62%30.32 "Hg16 mi
2:00 PM67 °FPassing clouds.3 mph68%30.33 "Hg14 mi
1:00 PM66 °FPassing clouds.3 mph72%30.33 "Hg11 mi
12:00 PM65 °FPassing clouds.2 mph77%30.33 "Hg7 mi
11:00 AM62 °FFog.3 mph87%30.33 "Hg4 mi
10:00 AM60 °FFog.2 mph89%30.32 "Hg4 mi
9:00 AM58 °FFog.3 mph94%30.31 "Hg3 mi
8:00 AM57 °FFog.3 mph95%30.29 "Hg2 mi
7:00 AM57 °FPassing clouds.3 mph96%30.29 "Hg3 mi
6:00 AM58 °FLight rain. Overcast.3 mph96%30.29 "Hg5 mi
5:00 AM58 °FOvercast.1 mph96%30.30 "Hg6 mi
4:00 AM58 °FLight rain. Overcast.1 mph95%30.31 "Hg6 mi
3:00 AM58 °FLight rain. Overcast.3 mph92%30.31 "Hg7 mi
2:00 AM52 °FFog.1 mph97%30.30 "Hg7 mi
1:00 AM52 °FFog.1 mph97%30.30 "Hg9 mi
12:00 AM55 °FFog.1 mph98%30.29 "Hg9 mi
Weather by CustomWeather, © 2014

See weather overviewHow to use our weather pages